When you browse on this site, cookies collect data to enhance your experience and personalize the content and advertising you see.
Visit our Privacy Policy to learn more. By continuing to use the site, you agree to this use of cookies and data.
  • în România
  • Lista ţărilor
  • Pe 7 zile
  • Temperatura apei
  • Hartă satelitară
  • Meteo pe hartă
  • Widget-uri
  • user-avatar
    Intrare

    Meteo pe oră la Lunyakovo

    Astăzi, 19 Martie, Marţi

    Timp Temperatura Precipitaţii Vânt Presiune Umiditate
    00:00 +1°C° 0.4 mm 4 m/s 744 mmHg 92%
    01:00 +2°C° 0.4 mm 3 m/s 744 mmHg 93%
    02:00 +2°C° 0 mm 3 m/s 744 mmHg 95%
    03:00 +2°C° 0.4 mm 2 m/s 744 mmHg 96%
    04:00 +2°C° 0.4 mm 2 m/s 744 mmHg 97%
    05:00 +2°C° 0.4 mm 2 m/s 744 mmHg 97%
    06:00 +3°C° 0.1 mm 1 m/s 744 mmHg 97%
    07:00 +3°C° 0.1 mm 1 m/s 744 mmHg 96%
    08:00 +3°C° 0 mm 2 m/s 745 mmHg 94%
    09:00 +4°C° 0.1 mm 2 m/s 745 mmHg 91%
    10:00 +5°C° 0.1 mm 2 m/s 745 mmHg 88%
    11:00 +5°C° 0.1 mm 2 m/s 745 mmHg 85%
    12:00 +6°C° 0 mm 2 m/s 745 mmHg 83%
    13:00 +5°C° 0 mm 3 m/s 745 mmHg 80%
    14:00 +7°C° 0 mm 3 m/s 746 mmHg 78%
    15:00 +5°C° 0 mm 3 m/s 746 mmHg 81%
    16:00 +5°C° 0 mm 2 m/s 746 mmHg 84%
    17:00 +4°C° 0 mm 2 m/s 746 mmHg 87%
    18:00 +3°C° 0 mm 2 m/s 746 mmHg 88%
    19:00 +2°C° 0 mm 2 m/s 747 mmHg 89%
    20:00 +1°C° 0 mm 3 m/s 747 mmHg 90%
    21:00 +1°C° 0 mm 2 m/s 747 mmHg 90%
    22:00 +1°C° 0 mm 2 m/s 747 mmHg 91%
    23:00 +1°C° 0 mm 2 m/s 747 mmHg 91%

    Mâine, 20 Martie, Miercuri

    Timp Temperatura Precipitaţii Vânt Presiune Umiditate
    00:00 -1°C° 0 mm 2 m/s 747 mmHg 91%
    01:00 -1°C° 0 mm 2 m/s 748 mmHg 91%
    02:00 -1°C° 0 mm 3 m/s 748 mmHg 91%
    03:00 -1°C° 0 mm 3 m/s 748 mmHg 92%
    04:00 -2°C° 0 mm 3 m/s 748 mmHg 92%
    05:00 -2°C° 0 mm 3 m/s 748 mmHg 93%
    06:00 -1°C° 0 mm 3 m/s 749 mmHg 90%
    07:00 -1°C° 0 mm 3 m/s 749 mmHg 88%
    08:00 -1°C° 0 mm 4 m/s 749 mmHg 85%
    09:00 0°C° 0 mm 4 m/s 749 mmHg 81%
    10:00 0°C° 0 mm 4 m/s 750 mmHg 77%
    11:00 +1°C° 0 mm 4 m/s 750 mmHg 73%
    12:00 +1°C° 0.1 mm 4 m/s 750 mmHg 72%
    13:00 +3°C° 0.1 mm 4 m/s 750 mmHg 72%
    14:00 +3°C° 0.1 mm 4 m/s 750 mmHg 72%
    15:00 +1°C° 0 mm 4 m/s 750 mmHg 75%
    16:00 +2°C° 0 mm 3 m/s 750 mmHg 78%
    17:00 +1°C° 0 mm 3 m/s 750 mmHg 81%
    18:00 0°C° 0 mm 3 m/s 750 mmHg 83%
    19:00 0°C° 0 mm 3 m/s 750 mmHg 85%
    20:00 -1°C° 0 mm 2 m/s 750 mmHg 87%
    21:00 -1°C° 0 mm 3 m/s 750 mmHg 87%
    22:00 -2°C° 0 mm 3 m/s 750 mmHg 87%
    23:00 -2°C° 0 mm 3 m/s 749 mmHg 86%

    Poimâine, 21 Martie, Joi

    Timp Temperatura Precipitaţii Vânt Presiune Umiditate
    00:00 -2°C° 0 mm 3 m/s 749 mmHg 85%
    01:00 -2°C° 0 mm 3 m/s 748 mmHg 85%
    02:00 -2°C° 0 mm 4 m/s 747 mmHg 84%
    03:00 -2°C° 0.4 mm 4 m/s 747 mmHg 86%
    04:00 -2°C° 0.4 mm 4 m/s 746 mmHg 88%
    05:00 -2°C° 0.4 mm 4 m/s 746 mmHg 89%
    06:00 -1°C° 0.3 mm 4 m/s 746 mmHg 87%
    07:00 0°C° 0.3 mm 4 m/s 746 mmHg 85%
    08:00 0°C° 0.3 mm 5 m/s 746 mmHg 83%
    09:00 0°C° 0 mm 5 m/s 746 mmHg 80%
    10:00 +1°C° 0 mm 5 m/s 747 mmHg 77%
    11:00 +1°C° 0 mm 5 m/s 747 mmHg 74%
    12:00 +1°C° 0 mm 5 m/s 747 mmHg 74%
    13:00 +1°C° 0 mm 5 m/s 747 mmHg 74%
    14:00 +2°C° 0 mm 5 m/s 748 mmHg 75%
    15:00 +1°C° 0 mm 4 m/s 748 mmHg 78%
    16:00 +2°C° 0 mm 3 m/s 748 mmHg 82%
    17:00 +2°C° 0 mm 2 m/s 748 mmHg 86%
    18:00 +2°C° 0 mm 2 m/s 748 mmHg 87%
    19:00 +1°C° 0 mm 2 m/s 748 mmHg 89%
    20:00 +2°C° 0 mm 1 m/s 748 mmHg 91%
    21:00 +1°C° 0 mm 1 m/s 748 mmHg 91%
    22:00 +1°C° 0 mm 1 m/s 748 mmHg 92%
    23:00 -2°C° 0 mm 2 m/s 748 mmHg 93%

    22 Martie, Vineri

    Timp Temperatura Precipitaţii Vânt Presiune Umiditate
    00:00 -2°C° 0 mm 2 m/s 747 mmHg 92%
    01:00 -1°C° 0 mm 2 m/s 747 mmHg 91%
    02:00 -1°C° 0 mm 2 m/s 746 mmHg 90%
    03:00 0°C° 0.1 mm 3 m/s 745 mmHg 90%
    04:00 0°C° 0.1 mm 3 m/s 744 mmHg 91%
    05:00 0°C° 0.1 mm 4 m/s 744 mmHg 91%
    06:00 +1°C° 0.1 mm 5 m/s 743 mmHg 88%
    07:00 +1°C° 0.1 mm 6 m/s 743 mmHg 85%
    08:00 +2°C° 0.1 mm 7 m/s 743 mmHg 82%
    09:00 +2°C° 0 mm 7 m/s 743 mmHg 74%
    10:00 +2°C° 0 mm 7 m/s 743 mmHg 65%
    11:00 +3°C° 0 mm 7 m/s 744 mmHg 57%
    12:00 +2°C° 0 mm 7 m/s 744 mmHg 57%
    13:00 +2°C° 0 mm 7 m/s 744 mmHg 58%
    14:00 +2°C° 0 mm 7 m/s 745 mmHg 58%
    15:00 0°C° 0 mm 7 m/s 745 mmHg 62%
    16:00 -1°C° 0 mm 6 m/s 745 mmHg 66%
    17:00 -2°C° 0 mm 6 m/s 746 mmHg 70%
    18:00 -2°C° 0 mm 6 m/s 746 mmHg 72%
    19:00 -1°C° 0 mm 5 m/s 747 mmHg 75%
    20:00 -1°C° 0 mm 5 m/s 748 mmHg 77%
    21:00 -1°C° 0 mm 5 m/s 748 mmHg 80%
    22:00 -2°C° 0 mm 5 m/s 748 mmHg 83%
    23:00 -2°C° 0 mm 4 m/s 749 mmHg 85%

    23 Martie, Sâmbătă

    Timp Temperatura Precipitaţii Vânt Presiune Umiditate
    00:00 -2°C° 0 mm 4 m/s 749 mmHg 85%
    01:00 -1°C° 0 mm 3 m/s 750 mmHg 84%
    02:00 -1°C° 0 mm 3 m/s 750 mmHg 84%
    03:00 -2°C° 0 mm 2 m/s 750 mmHg 87%
    04:00 -2°C° 0 mm 2 m/s 750 mmHg 91%
    05:00 -3°C° 0 mm 2 m/s 750 mmHg 94%
    06:00 -2°C° 0 mm 2 m/s 751 mmHg 90%
    07:00 -2°C° 0 mm 2 m/s 751 mmHg 86%
    08:00 +1°C° 0 mm 1 m/s 751 mmHg 83%
    09:00 +1°C° 0 mm 2 m/s 751 mmHg 77%
    10:00 +3°C° 0 mm 2 m/s 750 mmHg 71%
    11:00 +4°C° 0 mm 2 m/s 750 mmHg 65%
    12:00 +4°C° 0 mm 2 m/s 749 mmHg 64%
    13:00 +4°C° 0 mm 3 m/s 749 mmHg 64%
    14:00 +5°C° 0 mm 3 m/s 748 mmHg 64%
    15:00 +4°C° 0 mm 3 m/s 748 mmHg 67%
    16:00 +4°C° 0 mm 3 m/s 747 mmHg 70%
    17:00 +4°C° 0 mm 3 m/s 746 mmHg 74%
    18:00 +4°C° 0 mm 3 m/s 746 mmHg 79%
    19:00 +3°C° 0 mm 4 m/s 746 mmHg 84%
    20:00 +3°C° 0 mm 4 m/s 745 mmHg 90%
    21:00 +4°C° 0.1 mm 4 m/s 745 mmHg 90%
    22:00 +4°C° 0.1 mm 4 m/s 745 mmHg 91%
    23:00 +4°C° 0.1 mm 4 m/s 744 mmHg 91%

    24 Martie, Duminică

    Timp Temperatura Precipitaţii Vânt Presiune Umiditate
    00:00 +4°C° 0.1 mm 4 m/s 745 mmHg 87%
    01:00 +2°C° 0.1 mm 5 m/s 745 mmHg 84%
    02:00 +2°C° 0.1 mm 5 m/s 746 mmHg 80%
    03:00 0°C° 0 mm 5 m/s 746 mmHg 79%
    04:00 -1°C° 0 mm 4 m/s 747 mmHg 77%
    05:00 -2°C° 0 mm 4 m/s 747 mmHg 76%
    06:00 -2°C° 0 mm 4 m/s 748 mmHg 72%
    07:00 -2°C° 0 mm 5 m/s 748 mmHg 68%
    08:00 -1°C° 0 mm 5 m/s 749 mmHg 64%
    09:00 0°C° 0 mm 5 m/s 749 mmHg 61%
    10:00 +1°C° 0 mm 5 m/s 749 mmHg 58%
    11:00 +2°C° 0 mm 5 m/s 749 mmHg 54%
    12:00 +2°C° 0 mm 5 m/s 749 mmHg 52%
    13:00 +2°C° 0 mm 5 m/s 749 mmHg 50%
    14:00 +3°C° 0 mm 5 m/s 749 mmHg 47%
    15:00 +3°C° 0 mm 4 m/s 749 mmHg 51%
    16:00 +3°C° 0 mm 3 m/s 749 mmHg 54%
    17:00 +3°C° 0 mm 2 m/s 749 mmHg 58%
    18:00 +2°C° 0 mm 2 m/s 749 mmHg 63%
    19:00 +2°C° 0 mm 1 m/s 749 mmHg 68%
    20:00 -1°C° 0 mm 0 m/s 749 mmHg 73%
    21:00 0°C° 0 mm 1 m/s 749 mmHg 73%
    22:00 0°C° 0 mm 1 m/s 748 mmHg 73%
    23:00 0°C° 0 mm 1 m/s 748 mmHg 72%
    Arată mai mult